This is the latest recevied weather packets stored in our database for station/object G7UKK-10. If no packets are shown the sender has not sent any weather packets the latest 1 day(s).
| Time | Temp. | Humidity | Pressure | Rain* | Wind** | Luminosity | Snow |
|---|---|---|---|---|---|---|---|
| 1778096417 | 7.22° C | 78% | 1016.9 hPa | 0 mm | - | - | - |
| 1778093717 | 8.33° C | 74% | 1016.8 hPa | 0 mm | - | - | - |
| 1778092817 | 8.33° C | 74% | 1016.7 hPa | 0 mm | - | - | - |
| 1778091917 | 8.33° C | 73% | 1016.6 hPa | 0 mm | - | - | - |
| 1778091018 | 8.89° C | 73% | 1016.7 hPa | 0 mm | - | - | - |
| 1778089217 | 8.33° C | 75% | 1016.7 hPa | 0 mm | - | - | - |
| 1778088317 | 8.33° C | 74% | 1016.6 hPa | 0 mm | - | - | - |
| 1778087417 | 8.89° C | 73% | 1016.7 hPa | 0 mm | - | - | - |
| 1778086517 | 8.89° C | 72% | 1016.7 hPa | 0 mm | - | - | - |
| 1778085617 | 9.44° C | 73% | 1016.6 hPa | 0 mm | - | - | - |
| 1778084717 | 8.89° C | 70% | 1016.6 hPa | 0 mm | - | - | - |
| 1778083817 | 9.44° C | 68% | 1016.6 hPa | 0 mm | - | - | - |
| 1778082917 | 9.44° C | 67% | 1016.5 hPa | 0 mm | - | - | - |
| 1778082017 | 9.44° C | 66% | 1016.6 hPa | 0 mm | - | - | - |
| 1778081117 | 10° C | 66% | 1016.6 hPa | 0 mm | - | - | - |
| 1778080217 | 9.44° C | 67% | 1016.6 hPa | 0 mm | - | - | - |
| 1778079317 | 9.44° C | 67% | 1016.6 hPa | 0 mm | - | - | - |
| 1778078417 | 9.44° C | 67% | 1016.7 hPa | 0 mm | - | - | - |
| 1778077517 | 10° C | 69% | 1016.7 hPa | 0 mm | - | - | - |
| 1778075717 | 11.11° C | 67% | 1016.9 hPa | 0 mm | - | - | - |
| 1778074817 | 11.11° C | 65% | 1016.8 hPa | 0 mm | - | - | - |
| 1778073917 | 10° C | 67% | 1017 hPa | 0 mm | - | - | - |
| 1778073017 | 9.44° C | 66% | 1017.1 hPa | 0 mm | - | - | - |
| 1778072117 | 9.44° C | 66% | 1016.9 hPa | 0 mm | - | - | - |
| 1778071217 | 9.44° C | 66% | 1017 hPa | 0 mm | - | - | - |
* Rain latest hour (hover to see other rain measurements)
** Current wind speed in m/s (hover to see current wind gust speed)